Weather History for KBTP - April, 2013

Change the Weather History Date:

Friday, April 19, 2013

  Actual Average Record
Temperature  
Mean Temperature 56 °F -  
Max Temperature 69 °F 59 °F 89 °F (1976)
Min Temperature 41 °F 38 °F 22 °F (1983)
Degree Days  
Heating Degree Days 10    
Growing Degree Days 6 (Base 50)    
Moisture  
Dew Point 45 °F    
Average Humidity 65    
Maximum Humidity 88    
Minimum Humidity 49    
Precipitation  
Precipitation 0.25 in - - ()
Sea Level Pressure  
Sea Level Pressure 29.70 in    
Wind  
Wind Speed 12 mph (SSW)    
Max Wind Speed 25 mph    
Max Gust Speed 38 mph    
Visibility 10 miles    
Events      
Averages and records for this station are not official NWS values.
T = Trace of Precipitation, MM = Missing Value Source: NWS Daily Summary

Daily Weather History Graph

Daily Weather History Graph

Search for Another Location

Airport or City:

Trip Planner

Search our weather history database for the weather conditions in past years. The results will help you decide how hot, cold, wet, or windy it might be!

Date:

Astronomy

Apr. 19, 2013 Rise Set
Actual Time 6:34 AM EDT 8:03 PM EDT
Civil Twilight 6:05 AM EDT 8:32 PM EDT
Nautical Twilight 5:31 AM EDT 9:07 PM EDT
Astronomical Twilight 4:54 AM EDT 9:44 PM EDT
Moon 1:44 PM EDT (4/19) 2:51 AM EDT (4/19)
Length of Visible Light 14h 26m
Length of Day
13h 29m
First Quarter, 61% of the Moon is Illuminated
Apr 19
First Quarter
Apr 25
Full
May 2
Last Quarter
May 9
New
May 18
First Quarter

Hourly Weather History & Observations

Time (EDT) Temp. Windchill Dew Point Humidity Pressure Visibility Wind Dir Wind Speed Gust Speed Precip Events Conditions
12:15 AM 69.8 °F - 51.8 °F 53% 29.80 in 10.0 mi South 11.5 mph 21.9 mph N/A   Clear
12:35 AM 69.8 °F - 51.8 °F 53% 29.80 in 10.0 mi South 10.4 mph 17.3 mph N/A   Clear
12:55 AM 69.8 °F - 51.8 °F 53% 29.78 in 10.0 mi South 10.4 mph 20.7 mph N/A   Clear
1:15 AM 69.8 °F - 51.8 °F 53% 29.77 in 10.0 mi SSE 11.5 mph 18.4 mph N/A   Clear
1:35 AM 69.8 °F - 50.0 °F 49% 29.76 in 10.0 mi SSE 11.5 mph 16.1 mph N/A   Clear
1:55 AM 69.8 °F - 50.0 °F 49% 29.75 in 10.0 mi South 11.5 mph 19.6 mph N/A   Clear
2:15 AM 68.0 °F - 50.0 °F 52% 29.74 in 10.0 mi SSE 12.7 mph 17.3 mph N/A   Clear
2:35 AM 68.0 °F - 50.0 °F 52% 29.73 in 10.0 mi SSE 11.5 mph 17.3 mph N/A   Clear
2:55 AM 68.0 °F - 50.0 °F 52% 29.72 in 10.0 mi South 11.5 mph 20.7 mph N/A   Clear
3:15 AM 68.0 °F - 50.0 °F 52% 29.72 in 10.0 mi South 12.7 mph 19.6 mph N/A   Clear
3:35 AM 66.2 °F - 51.8 °F 60% 29.71 in 10.0 mi South 11.5 mph 19.6 mph N/A   Clear
3:55 AM 66.2 °F - 51.8 °F 60% 29.70 in 10.0 mi South 12.7 mph 18.4 mph N/A   Clear
4:15 AM 66.2 °F - 51.8 °F 60% 29.69 in 10.0 mi South 13.8 mph 23.0 mph N/A   Clear
4:35 AM 66.2 °F - 51.8 °F 60% 29.69 in 10.0 mi South 11.5 mph 19.6 mph N/A   Clear
4:55 AM 66.2 °F - 51.8 °F 60% 29.68 in 10.0 mi South 11.5 mph 20.7 mph N/A   Clear
5:15 AM 66.2 °F - 51.8 °F 60% 29.67 in 10.0 mi South 12.7 mph 21.9 mph N/A   Clear
5:35 AM 66.2 °F - 51.8 °F 60% 29.67 in 10.0 mi SE 9.2 mph 16.1 mph N/A   Clear
5:55 AM 66.2 °F - 51.8 °F 60% 29.66 in 10.0 mi SSE 8.1 mph 18.4 mph N/A   Clear
6:15 AM 66.2 °F - 51.8 °F 60% 29.65 in 10.0 mi SSE 6.9 mph - N/A   Clear
6:55 AM 66.2 °F - 51.8 °F 60% 29.63 in 10.0 mi SSE 10.4 mph - N/A   Clear
7:15 AM 66.2 °F - 51.8 °F 60% 29.64 in 10.0 mi SSE 11.5 mph 18.4 mph N/A   Clear
7:35 AM 66.2 °F - 51.8 °F 60% 29.63 in 10.0 mi SSE 11.5 mph 20.7 mph N/A   Clear
7:55 AM 66.2 °F - 51.8 °F 60% 29.62 in 10.0 mi SSE 13.8 mph 19.6 mph N/A   Clear
8:15 AM 66.2 °F - 53.6 °F 64% 29.61 in 10.0 mi SSE 11.5 mph 24.2 mph N/A   Clear
8:35 AM 66.2 °F - 53.6 °F 64% 29.60 in 10.0 mi SSE 11.5 mph 21.9 mph N/A   Clear
8:55 AM 68.0 °F - 53.6 °F 60% 29.59 in 10.0 mi SSE 10.4 mph 17.3 mph N/A   Clear
9:15 AM 68.0 °F - 53.6 °F 60% 29.59 in 10.0 mi SSE 9.2 mph 19.6 mph N/A   Mostly Cloudy
9:35 AM 69.8 °F - 53.6 °F 56% 29.58 in 10.0 mi South 11.5 mph 21.9 mph N/A   Mostly Cloudy
9:55 AM 66.2 °F - 53.6 °F 64% 29.58 in 9.0 mi South 16.1 mph 24.2 mph N/A   Overcast
10:15 AM 64.4 °F - 55.4 °F 73% 29.57 in 10.0 mi South 9.2 mph 18.4 mph 0.03 in   Overcast
10:55 AM 64.4 °F - 55.4 °F 73% 29.58 in 10.0 mi South 11.5 mph 21.9 mph 0.07 in   Overcast
11:15 AM 62.6 °F - 57.2 °F 82% 29.57 in 10.0 mi South 11.5 mph 23.0 mph 0.03 in   Mostly Cloudy
11:35 AM 62.6 °F - 57.2 °F 82% 29.54 in 10.0 mi SSE 13.8 mph 23.0 mph 0.06 in   Overcast
11:55 AM 62.6 °F - 57.2 °F 82% 29.55 in 10.0 mi SSE 12.7 mph 21.9 mph 0.08 in   Mostly Cloudy
12:15 PM 64.4 °F - 57.2 °F 77% 29.52 in 10.0 mi SSE 11.5 mph 23.0 mph N/A   Mostly Cloudy
12:35 PM 64.4 °F - 57.2 °F 77% 29.52 in 10.0 mi SSE 11.5 mph 19.6 mph N/A   Overcast
12:55 PM 64.4 °F - 57.2 °F 77% 29.51 in 8.0 mi South 15.0 mph 23.0 mph N/A   Overcast
1:15 PM 60.8 °F - 55.4 °F 82% 29.58 in 8.0 mi WSW 25.3 mph 38.0 mph 0.01 in   Overcast
1:35 PM 55.4 °F - 51.8 °F 88% 29.58 in 10.0 mi West 11.5 mph 21.9 mph 0.02 in   Overcast
1:55 PM 53.6 °F - 48.2 °F 82% 29.61 in 10.0 mi WSW 16.1 mph 24.2 mph 0.03 in   Overcast
2:15 PM 51.8 °F - 46.4 °F 82% 29.63 in 5.0 mi West 17.3 mph 25.3 mph 0.01 in   Overcast
2:35 PM 50.0 °F - 46.4 °F 87% 29.64 in 9.0 mi West 16.1 mph 27.6 mph 0.02 in   Overcast
2:55 PM 48.2 °F - 44.6 °F 87% 29.65 in 9.0 mi WSW 16.1 mph 27.6 mph 0.05 in   Overcast
3:15 PM 48.2 °F - 44.6 °F 87% 29.67 in 5.0 mi West 9.2 mph 20.7 mph 0.01 in   Overcast
3:35 PM 48.2 °F - 44.6 °F 87% 29.66 in 10.0 mi WSW 8.1 mph - 0.02 in   Overcast
3:55 PM 48.2 °F - 42.8 °F 82% 29.68 in 10.0 mi WSW 16.1 mph 25.3 mph 0.02 in   Mostly Cloudy
4:15 PM 46.4 °F 41.1 °F 42.8 °F 87% 29.69 in 10.0 mi WSW 11.5 mph 19.6 mph N/A   Overcast
4:35 PM 46.4 °F 41.9 °F 41.0 °F 81% 29.71 in 10.0 mi WSW 9.2 mph - N/A   Overcast
4:55 PM 48.2 °F - 39.2 °F 71% 29.73 in 10.0 mi WSW 16.1 mph 19.6 mph N/A   Overcast
5:15 PM 46.4 °F 40.4 °F 37.4 °F 71% 29.74 in 10.0 mi WSW 13.8 mph 20.7 mph N/A   Overcast
5:35 PM 46.4 °F 41.1 °F 37.4 °F 71% 29.74 in 10.0 mi WSW 11.5 mph - N/A   Overcast
5:55 PM 48.2 °F - 37.4 °F 66% 29.74 in 10.0 mi WSW 11.5 mph 20.7 mph N/A   Overcast
6:15 PM 46.4 °F 40.1 °F 35.6 °F 66% 29.75 in 10.0 mi WSW 15.0 mph 19.6 mph N/A   Mostly Cloudy
6:35 PM 46.4 °F 38.7 °F 33.8 °F 62% 29.76 in 10.0 mi WSW 20.7 mph 27.6 mph N/A   Mostly Cloudy
6:55 PM 46.4 °F 39.5 °F 32.0 °F 57% 29.77 in 10.0 mi SW 17.3 mph 26.5 mph N/A   Mostly Cloudy
7:15 PM 46.4 °F 40.7 °F 32.0 °F 57% 29.78 in 10.0 mi WSW 12.7 mph 20.7 mph N/A   Overcast
7:35 PM 46.4 °F 42.4 °F 32.0 °F 57% 29.77 in 10.0 mi West 8.1 mph - N/A   Overcast
7:55 PM 44.6 °F 38.8 °F 30.2 °F 57% 29.77 in 10.0 mi WSW 11.5 mph 19.6 mph N/A   Overcast
8:15 PM 44.6 °F 37.4 °F 28.4 °F 53% 29.78 in 10.0 mi WSW 16.1 mph 24.2 mph N/A   Overcast
8:35 PM 44.6 °F 38.1 °F 28.4 °F 53% 29.80 in 10.0 mi WSW 13.8 mph 26.5 mph N/A   Overcast
8:55 PM 44.6 °F 37.2 °F 28.4 °F 53% 29.81 in 10.0 mi WSW 17.3 mph 27.6 mph N/A   Overcast
9:15 PM 44.6 °F 37.4 °F 30.2 °F 57% 29.82 in 10.0 mi WSW 16.1 mph 20.7 mph N/A   Overcast
9:35 PM 42.8 °F 35.8 °F 28.4 °F 57% 29.83 in 10.0 mi West 13.8 mph 20.7 mph N/A   Overcast
9:55 PM 42.8 °F 36.2 °F 28.4 °F 57% 29.84 in 10.0 mi West 12.7 mph 18.4 mph N/A   Overcast
10:15 PM 42.8 °F 34.8 °F 28.4 °F 57% 29.85 in 10.0 mi WSW 17.3 mph 24.2 mph N/A   Overcast
10:35 PM 42.8 °F 37.0 °F 28.4 °F 57% 29.84 in 10.0 mi West 10.4 mph 17.3 mph N/A   Overcast
10:55 PM 42.8 °F 35.8 °F 28.4 °F 57% 29.85 in 10.0 mi WSW 13.8 mph 18.4 mph N/A   Overcast
11:15 PM 42.8 °F 37.5 °F 28.4 °F 57% 29.86 in 10.0 mi WSW 9.2 mph - N/A   Overcast
11:35 PM 42.8 °F 35.4 °F 30.2 °F 61% 29.86 in 10.0 mi WSW 15.0 mph 20.7 mph N/A   Overcast
11:55 PM 41.0 °F 32.8 °F 30.2 °F 65% 29.86 in 10.0 mi WSW 16.1 mph 27.6 mph N/A   Overcast